Tracking 28096 objects as of 29-Sep-2023
HD Live streaming from Space Station
objects crossing your sky now

SL-8 DEB

Track SL-8 DEB now!
10-day predictions


NORAD ID: 21157
Int'l Code: 1991-009U
Perigee: 1,442.7 km
Apogee: 1,721.0 km
Inclination: 74.0 °
Period: 117.6 minutes
Semi major axis: 7952 km
RCS: 0.2621 m2 (medium)
Launch date: February 12, 1991
Source: Commonwealth of Independent States (former USSR) (CIS)
Launch site: PLESETSK MISSILE AND SPACE COMPLEX (PKMTR)

Note: This is SATELLITE DEBRIS
Your satellite tracking list
Your tracking list is empty




NASA's NSSDC Master Catalog

Two Line Element Set (TLE):
1 21157U 91009U   23271.66281233  .00000024  00000-0  34554-3 0  9991
2 21157  73.9505 149.3901 0174950 217.6181 206.9566 12.24112588455301
Source of the keplerian elements: AFSPC